Regional Weather Roundup
Issued by NWS

Home | Current Version | Previous Version | Text Only | Print | Product List | Glossary On
Versions: 1 2 3 4 5 6 7 8 9 10 11 12 13 14 15 16 17 18 19 20 21 22 23 24 25 26 27 28 29 30 31 32 33 34 35 36 37 38 39 40 41 42 43 44 45 46 47 48 49 50
000
ASUS44 KFWD 231915
RWRTX
NORTH TEXAS HOURLY WEATHER ROUNDUP
NATIONAL WEATHER SERVICE FORT WORTH TX
200 PM CDT SUN APR 23 2017

NOTE: "FAIR" INDICATES FEW OR NO CLOUDS BELOW 12,000 FEET WITH NO
SIGNIFICANT WEATHER AND/OR OBSTRUCTIONS TO VISIBILITY.

TXZ118-119-232000-
DALLAS/FORT WORTH METROPLEX

CITY           SKY/WX    TMP DP  RH WIND       PRES   REMARKS
DFW AIRPORT    SUNNY     72  39  30 N16G22    30.09F
DALLAS LOVE    MOSUNNY   70  41  34 NW17G24   30.10F
FTW MEACHAM    SUNNY     72  43  35 N8        30.11F
DAL-EXECUTIVE  SUNNY     70  42  36 N10G21    30.10F
FTW-ALLIANCE   SUNNY     71  41  33 N12G18    30.11F
FTW-NAS-JRB    SUNNY     71  40  32 NW13      30.12F
FTW-SPINKS     SUNNY     72  39  30 N9        30.13F
ARLINGTON      SUNNY     70  40  33 N15G21    30.11F
GRAND PRAIRIE  SUNNY     70  39  32 NW7G23    30.12F
ADDISON        SUNNY     68  41  37 N12G22    30.11F
MESQUITE       SUNNY     68  41  37 NW14      30.10F
LANCASTER      SUNNY     69  42  38 N9        30.11F
$$

TXZ091>094-102>105-117-120-121-131>134-232000-
NORTH CENTRAL TEXAS

CITY           SKY/WX    TMP DP  RH WIND       PRES   REMARKS
SHRMAN/DENISON SUNNY     68  42  39 N14       30.12F
GAINESVILLE    SUNNY     67  40  36 NW7G16    30.14F
BOWIE          SUNNY     69  38  32 N12G25    30.14F
BRIDGEPORT     SUNNY     68  35  29 N12G17    30.15F
DECATUR        SUNNY     68  38  34 NW7G16    30.13F
DENTON         SUNNY     69  43  38 N12       30.12F
MCKINNEY       SUNNY     68  43  40 N18G25    30.11F
BONHAM         SUNNY     66  43  42 N16       30.10F
GREENVILLE     SUNNY     72  41  33 NW17G23   30.09F
ROCKWALL       SUNNY     68  44  42 N10G16    30.11F
TERRELL        SUNNY     69  41  36 NW13      30.09F
WAXAHACHIE     SUNNY     68  42  38 NW13      30.12F
CLEBURNE       SUNNY     68  41  37 NE10G21   30.13F
GRANBURY       SUNNY     71  39  31 N13       30.13F
$$

TXZ083>090-098>101-113>116-127>130-139>142-154-155-232000-
WESTERN NORTH TEXAS

CITY           SKY/WX    TMP DP  RH WIND       PRES   REMARKS
WICHITA FALLS  SUNNY     70  36  28 W9G18     30.14F
WF-KICKAPOO    SUNNY     69  35  28 N7        30.15F
VERNON         SUNNY     68  25  19 CALM      30.17F
ABILENE        SUNNY     68  34  28 VRB6      30.17F
ABILENE-DYESS  MOSUNNY   68  35  29 SE3       30.15F
GRAHAM         SUNNY     71  37  29 NW10      30.13F
BRECKENRIDGE   SUNNY     71  31  22 N6        30.14F
CISCO          SUNNY     68  36  30 NE9       30.16F
RANGER           N/A     67  39  35 N9        30.14F
MINERAL WELLS  SUNNY     71  34  25 N12       30.12F
STEPHENVILLE   SUNNY     68  37  32 N8        30.16F
COMANCHE       SUNNY     67  39  35 NE7       30.15F
BROWNWOOD      SUNNY     68  32  26 N12G18    30.15F
COLEMAN        SUNNY     68  33  27 CALM      30.16F
$$

TXZ143>147-156>162-174-175-232000-
CENTRAL TEXAS

CITY           SKY/WX    TMP DP  RH WIND       PRES   REMARKS
WACO           SUNNY     70  44  39 N15       30.11F
WACO-MCGREGOR  SUNNY     70  42  36 N10       30.12F
HILLSBORO      SUNNY     69  44  39 N16       30.12F
CORSICANA      SUNNY     69  45  41 N13G23    30.11F
MEXIA          SUNNY     68  44  42 N13G20    30.10F
HEARNE         SUNNY     69  44  40 NW16G22   30.10F
CAMERON        SUNNY     69  45  41 NE13G18   30.10F
TEMPLE         SUNNY     70  42  36 N16G23    30.11F
KILLEEN        SUNNY     70  39  32 N14G21    30.10F
KILLEEN-SKYLRK SUNNY     69  40  34 N13G18    30.11F
FORT HOOD      SUNNY     69  38  32 N14G25    30.09F
GATESVILLE     SUNNY     70  39  32 N12       30.14F
HAMILTON       SUNNY     69  38  31 N13       30.14F
LAMPASAS       SUNNY     71  45  39 N10G16    30.12F
$$

TXZ095>097-106>112-122>126-135>138-148>153-164>167-232000-
EAST TEXAS

CITY           SKY/WX    TMP DP  RH WIND       PRES   REMARKS
PARIS          SUNNY     68  43  40 N15       30.08F
SULPHUR SPRNGS SUNNY     68  46  44 N14       30.10F
MOUNT PLEASANT SUNNY     69  40  35 N9G16     30.07F
GILMER         SUNNY     66  42  41 NW10G16   30.05F
MINEOLA        SUNNY     68  43  40 N10G21    30.07F
TYLER          SUNNY     69  42  37 NW14      30.06F
LONGVIEW       SUNNY     70  45  40 NW17G24   30.04F
MARSHALL       SUNNY     68  42  38 N12G17    30.06S
ATHENS         SUNNY     68  37  32 N12G20    30.07F
PALESTINE      SUNNY     68  47  46 NW9G22    30.09F
JACKSONVILLE   SUNNY     67  44  44 NW13G20   30.08F
HENDERSON      SUNNY     68  42  39 NW8       30.06F
CENTER         MOCLDY    70  48  44 N10G20    30.04F
NACOGDOCHES    MOSUNNY   68  46  45 N8G22     30.03F
LUFKIN         SUNNY     67  45  45 N9G21     30.04F
$$

SUPPLEMENTAL OBSERVATIONS (CENTRAL)

CITY           SKY/WX    TMP DP  RH WIND       PRES   REMARKS
DENISON DAM      N/A     64  36  34 N14         N/A
CADDO GRASSLND   N/A     72  45  37 N6G14       N/A
PAT MAYSE LAKE   N/A     66  34  30 NW12        N/A
GREENVILLE       N/A     68  41  37 N13         N/A
CEDAR HILL       N/A     72  39  30 N8          N/A
MCGREGOR         N/A     72  41  33 N7G17       N/A
TEMPLE           N/A     72  41  33 N3G17       N/A
$$

SUPPLEMENTAL OBSERVATIONS (WEST)

CITY           SKY/WX    TMP DP  RH WIND       PRES   REMARKS
MILLERS CREEK    N/A     72  34  25 NE7G16      N/A
POSSUM KINGDOM   N/A     72  34  25 N10         N/A
LBJ GRASSLAND    N/A     72  39  30 N8G16       N/A
GRANBURY         N/A     70  37  30 N9G18       N/A
HAMBY            N/A     70  32  24 N7          N/A
IVIE RESERVOIR   N/A     72  36  26 NW5         N/A
COLORADO BEND    N/A     70  36  28 E8G17       N/A
$$

SUPPLEMENTAL OBSERVATIONS (EAST)

CITY           SKY/WX    TMP DP  RH WIND       PRES   REMARKS
CLARKSVILLE      N/A     70  41  35 NW7G17      N/A
TEXARKANA        N/A     68  45  42 N7G15       N/A
LINDEN           N/A     70  43  37 N5G14       N/A
CADDO LAKE       N/A     70  45  40 NW7G16      N/A
GILMER           N/A     70  41  35 NW9         N/A
HENDERSON        N/A     70  43  37 NW14        N/A
LUFKIN           N/A     68  45  42 MISG        N/A
N SABINE NF      N/A     70  50  49 MISG        N/A
S SABINE NF      N/A     64  46  52 N6          N/A
$$

SUPPLEMENTAL OBSERVATIONS ARE A COLLECTION OF AUTOMATED INSTRUMENTS
THAT ARE MAINTAINED BY A VARIETY OF FEDERAL AND STATE AGENCIES.
CERTAIN ELEMENTS...SUCH AS HUMIDITY VALUES AND SUSTAINED WIND
SPEEDS...MAY BE APPROXIMATED.




USA.gov is the U.S. government's official web portal to all federal, state and local government web resources and services.